{"data":{"norad_id":38356,"epoch":"2026-09-19T21:10:57.090144Z","epoch_age_seconds":67747,"freshness":"FRESH","line1":"1 38356U 12030A   26262.88260521 -.00000060  00000+0  00000+0 0  9996","line2":"2 38356   0.0156  97.4676 0003130  85.6702 299.4027  1.00272257 51402","mean_motion":1.00272257,"eccentricity":0.000313,"inclination_deg":0.0156,"raan_deg":97.4676,"arg_perigee_deg":85.6702,"mean_anomaly_deg":299.4027,"bstar":0,"rev_number":5140,"period_min":1436.0901440565,"perigee_km":35773.265123287,"apogee_km":35799.660162664,"semimajor_km":42164.599642976,"source":"CELESTRAK","updated_at":"2026-09-20T09:00:35.520183Z"}}